GW1838 Weather Reports


Display with metric or nautical units.
time (UTC)temp
F
wind
direction
speed
MPH
gust
MPH
rain 1hr
in
rain 24hr
in
rain mn
in
humidity
%
barometer
mb
20260510112308 54 67 2.0 3.0 0.00 0.00 0.00 96 1011.5
20260510111808 54 345 2.0 3.0 0.00 0.00 0.00 96 1011.3
20260510111307 53 346 3.0 5.0 0.00 0.00 0.00 96 1011.3
20260510110808 53 24 3.0 6.0 0.00 0.00 0.00 96 1011.2
20260510105807 54 338 0.0 2.0 0.00 0.00 0.00 96 1010.9
20260510105307 53 338 1.0 5.0 0.00 0.00 0.00 96 1011.0
20260510104307 53 18 2.0 3.0 0.00 0.00 0.00 96 1011.1
20260510101808 52 141 1.0 2.0 0.00 0.00 0.00 96 1010.7
20260510101307 52 141 0.0 1.0 0.00 0.00 0.00 96 1010.6
20260510100808 52 141 0.0 1.0 0.00 0.00 0.00 95 1010.5
20260510100307 52 141 1.0 2.0 0.00 0.00 0.00 96 1010.4
20260510095307 52 141 0.0 0.0 0.00 0.00 0.00 96 1010.4
20260510094808 52 141 0.0 1.0 0.00 0.00 0.00 96 1010.4
20260510093807 52 121 1.0 3.0 0.00 0.00 0.00 96 1010.1
20260510093307 52 121 1.0 1.0 0.00 0.00 0.00 96 1009.9
20260510092808 52 121 0.0 2.0 0.00 0.00 0.00 96 1009.8
20260510092307 52 121 0.0 2.0 0.00 0.00 0.00 96 1009.8
20260510090307 52 126 1.0 3.0 0.00 0.00 0.00 96 1009.9
20260510085307 52 126 2.0 3.0 0.00 0.00 0.00 96 1009.9
20260510084807 52 126 1.0 3.0 0.00 0.00 0.00 96 1009.8
20260510084308 52 126 2.0 3.0 0.00 0.00 0.00 96 1009.9
20260510083807 52 126 2.0 3.0 0.00 0.00 0.00 96 1009.9
20260510081807 52 146 1.0 2.0 0.00 0.00 0.00 95 1009.7
20260510080308 52 146 1.0 2.0 0.00 0.00 0.00 95 1009.7
20260510075808 52 146 1.0 2.0 0.00 0.00 0.00 95 1009.6
20260510074807 52 146 1.0 2.0 0.00 0.00 0.00 95 1009.6
20260510073307 52 146 1.0 2.0 0.00 0.00 0.00 95 1009.7
20260510072809 53 146 1.0 3.0 0.00 0.00 0.00 95 1009.7
20260510072307 52 152 2.0 3.0 0.00 0.00 0.00 95 1009.7
20260510071807 52 146 2.0 3.0 0.00 0.00 0.00 95 1009.7
20260510071307 52 139 2.0 3.0 0.00 0.00 0.00 95 1009.8
20260510065307 52 139 1.0 3.0 0.00 0.00 0.00 95 1009.8
20260510062807 52 139 1.0 2.0 0.00 0.00 0.00 95 1009.8
20260510062307 52 139 0.0 1.0 0.00 0.00 0.00 95 1009.8
20260510061807 52 139 0.0 1.0 0.00 0.00 0.00 95 1009.9
20260510060807 52 139 2.0 3.0 0.00 0.00 0.00 95 1009.7
20260510055307 52 128 1.0 2.0 0.00 0.00 0.00 95 1009.9
20260510054807 52 127 1.0 3.0 0.00 0.00 0.00 95 1010.0
20260510054307 52 127 2.0 3.0 0.00 0.00 0.00 95 1010.0
20260510052807 52 127 1.0 2.0 0.00 0.00 0.00 95 1010.1
20260510052307 52 107 1.0 3.0 0.00 0.00 0.00 95 1010.2
20260510050307 52 96 0.0 1.0 0.00 0.00 0.00 95 1010.2
20260510044806 52 96 1.0 2.0 0.00 0.00 0.00 94 1010.3
20260510043807 52 68 0.0 1.0 0.00 0.00 0.00 94 1010.3
20260510043307 52 68 0.0 1.0 0.00 0.00 0.00 94 1010.3
20260510042807 52 68 0.0 1.0 0.00 0.00 0.00 94 1010.3
20260510042307 52 68 0.0 1.0 0.00 0.00 0.00 94 1010.4
20260510040839 52 69 1.0 2.0 0.00 0.00 0.00 94 1010.2
20260510040307 52 66 0.0 0.0 0.00 0.00 0.00 94 1010.2
20260510035807 52 66 0.0 1.0 0.00 0.00 0.00 94 1010.2
20260510034807 52 66 0.0 1.0 0.00 0.00 0.00 94 1010.2
20260510032307 53 66 0.0 2.0 0.00 0.00 0.00 94 1010.0
20260510031807 53 66 1.0 2.0 0.00 0.00 0.00 94 1009.8
20260510022807 54 66 1.0 2.0 0.00 0.00 0.00 93 1009.9
20260510022307 54 66 1.0 2.0 0.00 0.00 0.00 93 1010.0
20260510020307 54 57 2.0 3.0 0.00 0.00 0.00 93 1010.0
20260510015308 54 57 2.0 3.0 0.00 0.00 0.00 93 1009.9
20260510013307 54 58 2.0 3.0 0.00 0.00 0.00 92 1009.8
20260510011807 54 65 2.0 3.0 0.00 0.00 0.00 92 1009.8
20260510010806 54 51 1.0 3.0 0.00 0.00 0.00 92 1009.7
20260510005807 54 18 2.0 3.0 0.00 0.00 0.00 92 1009.7
20260510004807 54 44 2.0 3.0 0.00 0.00 0.00 91 1009.7
20260510003807 55 32 1.0 3.0 0.00 0.00 0.00 91 1009.6
20260510002307 54 55 1.0 3.0 0.00 0.00 0.00 91 1009.5
20260510001807 54 57 1.0 3.0 0.00 0.00 0.00 91 1009.5
20260509235307 55 58 3.0 3.0 0.00 0.00 0.00 90 1009.4
20260509234807 55 62 2.0 6.0 0.00 0.00 0.00 90 1009.3
20260509234307 55 49 2.0 5.0 0.00 0.00 0.00 89 1009.3
20260509233807 56 67 3.0 7.0 0.00 0.00 0.00 89 1009.2
20260509232807 56 78 3.0 3.0 0.00 0.00 0.00 87 1009.0
20260509230307 61 29 5.0 8.0 0.00 0.00 0.00 87 1009.2
20260509225807 62 25 6.0 12.0 0.00 0.00 0.00 87 1009.2
20260509225306 62 9 5.0 12.0 0.00 0.00 0.00 87 1009.2
20260509224307 61 17 5.0 7.0 0.00 0.00 0.00 87 1009.3
20260509223306 61 348 3.0 5.0 0.00 0.00 0.00 88 1009.4
20260509222807 61 343 1.0 3.0 0.00 0.00 0.00 89 1009.2
20260509214307 56 181 5.0 8.0 0.00 0.00 0.00 91 1008.6
20260509213806 56 176 4.0 7.0 0.00 0.00 0.00 91 1008.5
20260509212306 56 184 5.0 9.0 0.00 0.00 0.00 90 1008.7
20260509211806 56 172 6.0 10.0 0.00 0.00 0.00 90 1008.8
20260509205308 57 197 5.0 12.0 0.00 0.00 0.00 90 1009.0
20260509204806 57 185 6.0 10.0 0.00 0.00 0.00 90 1009.0
20260509203806 57 181 7.0 12.0 0.00 0.00 0.00 91 1009.1
20260509200807 56 174 9.0 12.0 0.00 0.00 0.00 92 1009.1
20260509200307 56 161 6.0 12.0 0.00 0.00 0.00 92 1009.2
20260509195807 56 173 5.0 9.0 0.00 0.00 0.00 92 1009.1
20260509195307 55 186 6.0 12.0 0.00 0.00 0.00 93 1009.2
20260509194806 55 182 8.0 12.0 0.00 0.00 0.00 92 1009.2
20260509194307 55 171 9.0 14.0 0.00 0.00 0.00 92 1009.2
20260509193807 55 189 6.0 15.0 0.00 0.00 0.00 92 1009.4
20260509193306 55 186 10.0 16.0 0.00 0.00 0.00 92 1009.6
20260509192806 55 179 12.0 21.0 0.00 0.00 0.00 92 1009.8
20260509191308 55 184 13.0 20.0 0.00 0.00 0.00 91 1010.1
20260509184806 56 174 13.0 22.0 0.00 0.00 0.00 90 1010.4
20260509183807 56 186 14.0 23.0 0.00 0.00 0.00 89 1010.4
20260509183307 56 182 14.0 23.0 0.00 0.00 0.00 89 1010.4
20260509182307 57 187 14.0 21.0 0.00 0.00 0.00 86 1010.4
20260509181306 58 181 12.0 21.0 0.00 0.00 0.00 85 1010.5
20260509175806 59 177 14.0 21.0 0.00 0.00 0.00 84 1010.8
20260509174807 58 190 10.0 15.0 0.00 0.00 0.00 82 1010.8
20260509173807 58 191 10.0 17.0 0.00 0.00 0.00 82 1010.7
20260509172806 58 192 9.0 14.0 0.00 0.00 0.00 82 1010.6
20260509171306 58 185 10.0 16.0 0.00 0.00 0.00 82 1010.8
20260509170806 58 189 10.0 16.0 0.00 0.00 0.00 82 1010.8
20260509170307 58 181 10.0 17.0 0.00 0.00 0.00 81 1010.8
20260509164307 60 192 10.0 16.0 0.00 0.00 0.00 80 1010.7
20260509163307 60 190 10.0 16.0 0.00 0.00 0.00 80 1010.9
20260509162806 60 195 9.0 14.0 0.00 0.00 0.00 80 1011.0
20260509160806 60 189 13.0 20.0 0.00 0.00 0.00 81 1011.5
20260509160306 60 208 10.0 17.0 0.00 0.00 0.00 80 1011.6
20260509155807 60 192 9.0 20.0 0.00 0.00 0.00 81 1011.7
20260509155306 60 187 9.0 21.0 0.00 0.00 0.00 80 1011.8
20260509154806 60 191 12.0 17.0 0.00 0.00 0.00 80 1011.8
20260509154306 60 202 10.0 20.0 0.00 0.00 0.00 80 1011.9
20260509151806 58 193 11.0 16.0 0.00 0.00 0.00 82 1012.0
20260509145806 58 199 9.0 15.0 0.00 0.00 0.00 83 1012.0
20260509145306 58 196 9.0 17.0 0.00 0.00 0.00 83 1012.0
20260509144806 58 196 10.0 18.0 0.00 0.00 0.00 82 1011.9
20260509143806 59 192 10.0 20.0 0.00 0.00 0.00 82 1011.9
20260509142307 58 204 10.0 16.0 0.00 0.00 0.00 83 1011.9
20260509141306 59 188 13.0 21.0 0.00 0.00 0.00 82 1011.8
20260509140807 59 200 10.0 18.0 0.00 0.00 0.00 82 1011.9
20260509135807 58 206 10.0 23.0 0.00 0.00 0.00 83 1011.9
20260509134807 58 197 10.0 18.0 0.00 0.00 0.00 83 1011.8
20260509134307 58 204 11.0 18.0 0.00 0.00 0.00 83 1011.9
20260509133806 58 205 11.0 20.0 0.00 0.00 0.00 83 1012.0
20260509132307 59 202 8.0 15.0 0.00 0.00 0.00 81 1012.0
20260509131806 59 214 7.0 14.0 0.00 0.00 0.00 80 1012.1
20260509131306 60 199 9.0 18.0 0.00 0.00 0.00 80 1012.1
20260509124806 59 215 10.0 21.0 0.00 0.00 0.00 81 1012.0
20260509124306 59 186 11.0 20.0 0.00 0.00 0.00 80 1012.1
20260509123806 60 191 9.0 14.0 0.00 0.00 0.00 78 1012.0
20260509122807 59 227 9.0 16.0 0.00 0.00 0.00 80 1012.0
20260509122306 59 215 9.0 16.0 0.00 0.00 0.00 80 1012.2
20260509121807 59 220 9.0 14.0 0.00 0.00 0.00 80 1012.2
20260509121306 59 213 8.0 13.0 0.00 0.00 0.00 81 1012.1
20260509115806 59 207 10.0 16.0 0.00 0.00 0.00 82 1012.2